Regional Weather Roundup
Issued by NWS

Home | Current Version | Previous Version | Graphics & Text | Print | Product List | Glossary On
Versions: 1 2 3 4 5 6 7 8 9 10 11 12 13 14 15 16 17 18 19 20 21 22 23 24 25 26 27 28 29 30 31 32 33 34 35 36 37 38 39 40 41 42 43 44 45 46 47 48 49 50
000
ASUS43 KMKX 080600
RWRWI

WISCONSIN REGIONAL WEATHER ROUNDUP
NATIONAL WEATHER SERVICE MILWAUKEE/SULLIVAN WI
1200 AM CST MON FEB 08 2016

NOTE: "FAIR" INDICATES FEW OR NO CLOUDS BELOW 12,000 FEET WITH NO
SIGNIFICANT WEATHER AND/OR OBSTRUCTIONS TO VISIBILITY.

WIZ001-002-006>008-014>016-023>028-080700-
NORTHWEST WISCONSIN

CITY           SKY/WX    TMP DP  RH WIND       PRES   REMARKS
SUPERIOR ARPT  CLOUDY    20  14  76 NW16G23   29.70R WCI   6
ASHLAND        LGT SNOW  28  26  92 NW9       29.62R FOG     WCI  19
6HR MIN TEMP:  28; 6HR MAX TEMP:  34; 6HR PCP:  0.04;

HAYWARD        FLURRIES  22  17  81 NW8       29.63R WCI  12
6HR MIN TEMP:  22; 6HR MAX TEMP:  32; 6HR PCP:  0.03;

SIREN          FLURRIES  18  12  77 NW13      29.71R WCI   5
CUMBERLAND     FLURRIES  19  14  79 W14G20    29.66R WCI   6
RICE LAKE      CLOUDY    21  15  78 W10       29.68R WCI   9
CHETEK         LGT SNOW  20  17  88 W8        29.66R WCI  11
LADYSMITH      LGT SNOW  25  22  88 W10       29.62R WCI  15
EAU CLAIRE     FLURRIES  22  16  78 NW9       29.66S WCI  12
MENOMONIE      LGT SNOW  22  16  79 W10G20    29.69R WCI  11
NEW RICHMOND   CLOUDY    18  12  76 NW13G21   29.72R WCI   5
OSCEOLA        CLOUDY    19  10  70 NW15G23   29.77R WCI   4
$$

WIZ003>005-009-010-017-018-080700-
NORTH CENTRAL WISCONSIN

CITY           SKY/WX    TMP DP  RH WIND       PRES   REMARKS
MANITOWISH WTR FLURRIES  28  27  94 W10       29.51S WCI  19
ARBOR VITAE    LGT SNOW  32  29  90 NW3       29.51S
WOODRUFF       LGT SNOW  32  29  90 NW3       29.51S
RHINELANDER    LGT SNOW  31  28  89 W9        29.51S FOG     WCI  23
6HR MIN TEMP:  31; 6HR MAX TEMP:  34; 6HR PCP:  0.01;

EAGLE RIVER    LGT SNOW  30  30  99 CALM      29.50S
LAND O LAKES   LGT SNOW  32  31  98 CALM      29.51R
PHILLIPS       LGT SNOW  26  24  93 W6        29.55R WCI  19
TOMAHAWK       LGT SNOW  29  26  88 W8        29.54R WCI  21
MEDFORD        FLURRIES  27  25  92 W10G16    29.56R WCI  17
MERRILL        LGT SNOW  30  29  94 W5        29.55R WCI  25
$$

WIZ029-030-035-036-043>047-080700-
CENTRAL WISCONSIN

CITY           SKY/WX    TMP DP  RH WIND       PRES   REMARKS
WAUSAU         CLOUDY    32  27  81 NW12      29.54R WCI  23
6HR MIN TEMP:  32; 6HR MAX TEMP:  37; 6HR PCP: TRACE;

MOSINEE        CLOUDY    30  28  93 W14G21    29.57R WCI  20
MARSHFIELD     CLOUDY    28  22  78 W12       29.57S WCI  18
6HR MIN TEMP:  28; 6HR MAX TEMP:  37; 6HR PCP: TRACE;

STEVENS POINT  CLOUDY    31  28  90 W10G21    29.57S WCI  22
WAUPACA        CLOUDY    37  29  73 W8        29.57F WCI  30
WAUTOMA        NOT AVBL
WISC RAPIDS    CLOUDY    31  24  75 NW10      29.60S WCI  22
6HR MIN TEMP:  31; 6HR MAX TEMP:  38; 6HR PCP: TRACE;

CAMP DOUGLAS   MIX PCPN  32  30  93 NW18      29.61S WCI  20
$$

WIZ011>013-019>022-031-037>040-048>050-080700-
NORTHEAST WISCONSIN

CITY           SKY/WX    TMP DP  RH WIND       PRES   REMARKS
ANTIGO         LGT SNOW  30  30  98 SW5       29.52F WCI  25
SHAWANO        CLOUDY    37  28  69 SW3       29.56F
OCONTO         CLOUDY    36  28  72 CALM      29.56F
STURGEON BAY   CLOUDY    36  27  69 SW6       29.59S WCI  31
6HR MIN TEMP:  36; 6HR MAX TEMP:  37;

GREEN BAY      CLOUDY    35  28  75 SW5       29.57F WCI  31
6HR MIN TEMP:  35; 6HR MAX TEMP:  38;

MANITOWOC      NOT AVBL
APPLETON       CLOUDY    34  27  75 SW6       29.56S WCI  29
CLINTONVILLE   CLOUDY    36  28  75 SW5       29.56F WCI  32
OSHKOSH        CLOUDY    35  27  72 SW8       29.58F WCI  29
6HR MIN TEMP:  34; 6HR MAX TEMP:  37;

$$

WIZ032>034-041-042-053>061-080700-
SOUTHWEST WISCONSIN

CITY           SKY/WX    TMP DP  RH WIND       PRES   REMARKS
LA CROSSE      LGT SNOW  26  21  81 NW13      29.68R WCI  15
6HR MIN TEMP:  26; 6HR MAX TEMP:  38; 6HR PCP: TRACE;

SPARTA         CLOUDY    30  24  77 NW14G20   29.65R WCI  20
VIROQUA        CLOUDY    28  24  85 W15G23    29.63R WCI  16
BOSCOBEL       CLOUDY    32  25  75 W10G24    29.67R WCI  24
6HR MIN TEMP:  32; 6HR MAX TEMP:  39; 6HR PCP:  0.01;

PRAIRIE DU CHI CLOUDY    31  20  64 NW20G26   29.69R WCI  18
PLATTEVILLE    CLOUDY    33  32  95 W12       29.64F WCI  25
$$

WIZ056-057-062-063-064-067-068-080700-
SOUTH CENTRAL WISCONSIN

CITY           SKY/WX    TMP DP  RH WIND       PRES   REMARKS
REEDSBURG      CLOUDY    33  32  94 SW8       29.60S WCI  26
BARABOO/DELLS  CLOUDY    34  29  83 SW7       29.59F WCI  28
LONE ROCK      FLURRIES  34  31  88 W8        29.63S WCI  27
6HR MIN TEMP:  34; 6HR MAX TEMP:  37; 6HR PCP: TRACE;

MINERAL POINT  FLURRIES  34  32  93 SW7       29.62F WCI  28
MADISON        CLOUDY    33  28  81 MISG      29.61F
6HR MIN TEMP:  33; 6HR MAX TEMP:  36;

MIDDLETON      CLOUDY    35  30  82 W8        29.62F WCI  29
WATERTOWN      CLOUDY    32  32 100 SW7       29.61F WCI  26
MONROE         CLOUDY    32  30  93 W14       29.63F WCI  22
JANESVILLE     PTCLDY    32  30  93 SW7       29.64F WCI  26
$$

WIZ051-052-058>065-066-070>072-080700-
SOUTHEAST WISCONSIN

CITY           SKY/WX    TMP DP  RH WIND       PRES   REMARKS
MILWAUKEE      CLEAR     31  26  82 SW6       29.63F WCI  25
6HR MIN TEMP:  31; 6HR MAX TEMP:  39;

WAUKESHA       CLEAR     30  27  86 SW7       29.62F WCI  23
MILWAUKEE/TIMM CLEAR     32  27  80 SW7       29.63F WCI  26
RACINE         CLEAR     31  25  78 S5        29.66S WCI  26
6HR MIN TEMP:  31; 6HR MAX TEMP:  40;

BURLINGTON     CLEAR     29  26  86 SW7       29.64F WCI  22
KENOSHA        CLEAR     31  26  82 SW10      29.65F WCI  22
6HR MIN TEMP:  31; 6HR MAX TEMP:  38;

FOND DU LAC    CLOUDY    33  26  75 SW8       29.59F WCI  26
6HR MIN TEMP:  32; 6HR MAX TEMP:  38;

SHEBOYGAN      PTCLDY    28  23  81 S6        29.59F WCI  22
6HR MIN TEMP:  28; 6HR MAX TEMP:  37;

WEST BEND      CLEAR     32  28  86 CALM      29.60F
JUNEAU         CLOUDY    32  28  84 SW8       29.60F WCI  25
$$

LSZ147-162-080700-
LAKE SUPERIOR

STATION/POSITION TIME  TEMP    WIND        PRES    WAVE
                       AIR SEA DIR/SP/G            HT/PER
                 (UTC) (F)     (DEG/KT/KT) (MB)    (FT/S)
DEVILS ISLAND    0500   26      30/ 22/ 26 1003.6R
PORT WING        0500   28     320/ 12/ 17 1003.7R
SAXON HARBOR     0500   31                 1000.0F
$$

LMZ867-665-643>646-080700-
LAKE MICHIGAN

STATION/POSITION TIME  TEMP    WIND        PRES    WAVE
                       AIR SEA DIR/SP/G            HT/PER
                 (UTC) (F)     (DEG/KT/KT) (MB)    (FT/S)
CHAMBERS ISLAND  0500   35     190/  4/  8 1001.7F
NORTHPORT PIER   0500   38     240/  2/  8 1001.4F
KEWAUNEE LAKESHO 0500   36     250/  5/  7 1001.5S
SHEBOYGAN LAKESH 0500   34     220/  7/  7 1003.7F
PORT WASHINGTON  0500   33     220/  2/  5 1004.4F
MILWAUKEE LAKESH 0520   35     240/  8/  9   N/A
KENOSHA   LAKESH 0500   35     250/ 11/ 16 1004.4F
$$

TC  - TEMPERATURE IN CELSIUS
VSB - VISIBILITY IN STATUTE MILES
WCI - WIND CHILL INDEX
HX  - HEAT INDEX




USA.gov is the U.S. government's official web portal to all federal, state and local government web resources and services.